Time,TemperatureF,DewpointF,PressureIn,WindDirection,WindDirectionDegrees,WindSpeedMPH,WindSpeedGustMPH,Humidity,HourlyPrecipIn,Conditions,Clouds,dailyrainin,SoftwareType,DateUTC
2013-01-28 00:00:00,27.4,26.2,29.74,East,96,1.0,2.0,95,0.00,,SKC,0.00,VWS V14.01,2013-01-28 06:00:00,
2013-01-28 00:03:00,27.4,26.2,29.74,East,96,2.0,2.0,95,0.00,,SKC,0.00,VWS V14.01,2013-01-28 06:03:00,
2013-01-28 00:08:00,27.4,26.2,29.74,East,96,0.0,2.0,95,0.00,,SKC,0.00,VWS V14.01,2013-01-28 06:08:00,
2013-01-28 00:13:00,27.5,26.3,29.74,East,96,0.0,2.0,95,0.00,,SKC,0.00,VWS V14.01,2013-01-28 06:13:00,
2013-01-28 00:18:00,27.6,26.4,29.74,East,96,0.0,2.0,95,0.00,,SKC,0.00,VWS V14.01,2013-01-28 06:18:00,
2013-01-28 00:23:00,27.5,26.3,29.74,East,96,2.0,2.0,95,0.00,,SKC,0.00,VWS V14.01,2013-01-28 06:23:00,
2013-01-28 00:28:00,27.4,26.2,29.74,East,96,0.0,3.0,95,0.00,,SKC,0.00,VWS V14.01,2013-01-28 06:28:00,
2013-01-28 00:30:00,27.4,26.2,29.74,East,96,0.0,3.0,95,0.00,,SKC,0.00,VWS V14.01,2013-01-28 06:30:00,
2013-01-28 00:33:00,27.4,26.2,29.74,East,96,2.0,3.0,95,0.00,,SKC,0.00,VWS V14.01,2013-01-28 06:33:00,
2013-01-28 00:38:00,27.4,26.2,29.74,East,96,0.0,0.0,95,0.00,,SKC,0.00,VWS V14.01,2013-01-28 06:38:00,
2013-01-28 00:43:00,27.3,26.1,29.74,East,96,0.0,0.0,95,0.00,,SKC,0.00,VWS V14.01,2013-01-28 06:43:00,
2013-01-28 00:45:00,27.3,26.1,29.74,East,96,0.0,0.0,95,0.00,,SKC,0.00,VWS V14.01,2013-01-28 06:45:00,
2013-01-28 00:50:00,27.5,26.3,29.74,East,96,0.0,0.0,95,0.00,,SKC,0.00,VWS V14.01,2013-01-28 06:50:00,
2013-01-28 00:55:00,27.4,26.2,29.74,East,96,1.0,3.0,95,0.00,,SKC,0.00,VWS V14.01,2013-01-28 06:55:00,
2013-01-28 01:00:00,27.4,26.2,29.74,East,96,0.0,3.0,95,0.00,,SKC,0.00,VWS V14.01,2013-01-28 07:00:00,
2013-01-28 01:05:00,27.3,26.1,29.74,East,96,0.0,3.0,95,0.00,,SKC,0.00,VWS V14.01,2013-01-28 07:05:00,
2013-01-28 01:10:00,27.1,25.9,29.74,East,96,0.0,0.0,95,0.00,,SKC,0.00,VWS V14.01,2013-01-28 07:10:00,
2013-01-28 01:15:00,27.0,25.8,29.74,East,96,0.0,0.0,95,0.00,,SKC,0.00,VWS V14.01,2013-01-28 07:15:00,
2013-01-28 01:20:00,26.9,25.7,29.74,East,96,0.0,0.0,95,0.00,,SKC,0.00,VWS V14.01,2013-01-28 07:20:00,
2013-01-28 01:25:00,26.8,25.6,29.74,East,96,0.0,0.0,95,0.00,,SKC,0.00,VWS V14.01,2013-01-28 07:25:00,
2013-01-28 01:30:00,26.7,25.5,29.74,East,96,0.0,0.0,95,0.00,,SKC,0.00,VWS V14.01,2013-01-28 07:30:00,
2013-01-28 01:35:00,26.6,25.4,29.74,East,96,0.0,0.0,95,0.00,,SKC,0.00,VWS V14.01,2013-01-28 07:35:00,
2013-01-28 01:40:00,26.4,25.2,29.74,East,96,0.0,0.0,95,0.00,,SKC,0.00,VWS V14.01,2013-01-28 07:40:00,
2013-01-28 01:45:00,26.2,25.0,29.74,East,96,0.0,0.0,95,0.00,,SKC,0.00,VWS V14.01,2013-01-28 07:45:00,
2013-01-28 01:50:00,26.1,24.9,29.74,East,96,0.0,0.0,95,0.00,,SKC,0.00,VWS V14.01,2013-01-28 07:50:00,
2013-01-28 01:55:00,26.0,24.8,29.74,East,96,0.0,0.0,95,0.00,,SKC,0.00,VWS V14.01,2013-01-28 07:55:00,
2013-01-28 02:00:00,26.1,24.9,29.73,East,96,0.0,0.0,95,0.00,,SKC,0.00,VWS V14.01,2013-01-28 08:00:00,
2013-01-28 02:05:00,25.9,24.7,29.74,East,96,0.0,0.0,95,0.00,,SKC,0.00,VWS V14.01,2013-01-28 08:05:00,
2013-01-28 02:10:00,25.8,24.6,29.74,East,96,0.0,0.0,95,0.00,,SKC,0.00,VWS V14.01,2013-01-28 08:10:00,
2013-01-28 02:15:00,25.4,24.2,29.74,East,96,0.0,0.0,95,0.00,,SKC,0.00,VWS V14.01,2013-01-28 08:15:00,
2013-01-28 02:20:00,25.2,24.0,29.75,East,96,0.0,0.0,95,0.00,,SKC,0.00,VWS V14.01,2013-01-28 08:20:00,
2013-01-28 02:25:00,25.1,23.9,29.75,East,96,0.0,0.0,95,0.00,,SKC,0.00,VWS V14.01,2013-01-28 08:25:00,
2013-01-28 02:30:00,25.3,24.1,29.75,East,96,0.0,0.0,95,0.00,,SKC,0.00,VWS V14.01,2013-01-28 08:30:00,
2013-01-28 02:35:00,25.5,24.3,29.75,East,96,0.0,0.0,95,0.00,,SKC,0.00,VWS V14.01,2013-01-28 08:35:00,
2013-01-28 02:40:00,25.0,23.8,29.75,East,96,0.0,0.0,95,0.00,,SKC,0.00,VWS V14.01,2013-01-28 08:40:00,
2013-01-28 02:45:00,24.5,23.3,29.75,East,96,0.0,0.0,95,0.00,,SKC,0.00,VWS V14.01,2013-01-28 08:45:00,
2013-01-28 02:51:00,24.5,23.3,29.75,East,96,0.0,0.0,95,0.00,,SKC,0.00,VWS V14.01,2013-01-28 08:51:00,
2013-01-28 02:56:00,24.7,23.5,29.75,East,96,0.0,0.0,95,0.00,,SKC,0.00,VWS V14.01,2013-01-28 08:56:00,
2013-01-28 03:00:00,24.9,23.7,29.74,East,96,0.0,0.0,95,0.00,,SKC,0.00,VWS V14.01,2013-01-28 09:00:00,
2013-01-28 03:01:00,24.7,23.5,29.74,East,96,0.0,0.0,95,0.00,,SKC,0.00,VWS V14.01,2013-01-28 09:01:00,
2013-01-28 03:06:00,24.9,23.7,29.74,East,96,0.0,0.0,95,0.00,,SKC,0.00,VWS V14.01,2013-01-28 09:06:00,
2013-01-28 03:11:00,25.1,23.9,29.74,East,96,0.0,0.0,95,0.00,,SKC,0.00,VWS V14.01,2013-01-28 09:11:00,
2013-01-28 03:16:00,25.1,23.9,29.75,East,96,0.0,0.0,95,0.00,,SKC,0.00,VWS V14.01,2013-01-28 09:16:00,
2013-01-28 03:21:00,25.2,24.0,29.75,East,96,0.0,0.0,95,0.00,,SKC,0.00,VWS V14.01,2013-01-28 09:21:00,
2013-01-28 03:26:00,25.1,23.9,29.75,East,96,0.0,0.0,95,0.00,,SKC,0.00,VWS V14.01,2013-01-28 09:26:00,
2013-01-28 03:30:00,25.3,24.1,29.75,East,96,0.0,0.0,95,0.00,,SKC,0.00,VWS V14.01,2013-01-28 09:30:00,
2013-01-28 03:31:00,25.2,24.0,29.75,East,96,0.0,0.0,95,0.00,,SKC,0.00,VWS V14.01,2013-01-28 09:31:00,
2013-01-28 03:36:00,25.3,24.1,29.75,East,96,0.0,0.0,95,0.00,,SKC,0.00,VWS V14.01,2013-01-28 09:36:00,
2013-01-28 03:41:00,25.4,24.2,29.76,East,96,0.0,0.0,95,0.00,,SKC,0.00,VWS V14.01,2013-01-28 09:41:00,
2013-01-28 03:46:00,25.4,24.2,29.75,East,96,0.0,0.0,95,0.00,,SKC,0.00,VWS V14.01,2013-01-28 09:46:00,
2013-01-28 03:51:00,25.4,24.2,29.75,East,96,0.0,0.0,95,0.00,,SKC,0.00,VWS V14.01,2013-01-28 09:51:00,
2013-01-28 03:56:00,25.5,24.3,29.75,East,96,0.0,0.0,95,0.00,,SKC,0.00,VWS V14.01,2013-01-28 09:56:00,
2013-01-28 04:00:00,25.6,24.4,29.75,East,96,0.0,0.0,95,0.00,,SKC,0.00,VWS V14.01,2013-01-28 10:00:00,
2013-01-28 04:01:00,25.6,24.4,29.75,East,96,0.0,0.0,95,0.00,,SKC,0.00,VWS V14.01,2013-01-28 10:01:00,
2013-01-28 04:06:00,25.6,24.4,29.76,East,96,0.0,0.0,95,0.00,,SKC,0.00,VWS V14.01,2013-01-28 10:06:00,
2013-01-28 04:11:00,25.7,24.5,29.76,East,96,0.0,0.0,95,0.00,,SKC,0.00,VWS V14.01,2013-01-28 10:11:00,
2013-01-28 04:16:00,25.7,24.5,29.76,East,96,0.0,0.0,95,0.00,,SKC,0.00,VWS V14.01,2013-01-28 10:16:00,
2013-01-28 04:21:00,25.7,24.5,29.77,East,96,0.0,0.0,95,0.00,,SKC,0.00,VWS V14.01,2013-01-28 10:21:00,
2013-01-28 04:27:00,25.7,24.5,29.76,East,96,0.0,0.0,95,0.00,,SKC,0.00,VWS V14.01,2013-01-28 10:27:00,
2013-01-28 04:30:00,25.8,24.6,29.77,East,96,0.0,0.0,95,0.00,,SKC,0.00,VWS V14.01,2013-01-28 10:30:00,
2013-01-28 04:32:00,25.7,24.5,29.77,East,96,0.0,0.0,95,0.00,,SKC,0.00,VWS V14.01,2013-01-28 10:32:00,
2013-01-28 04:37:00,25.8,24.6,29.77,East,96,0.0,0.0,95,0.00,,SKC,0.00,VWS V14.01,2013-01-28 10:37:00,
2013-01-28 04:42:00,26.0,24.8,29.76,East,96,0.0,0.0,95,0.00,,SKC,0.00,VWS V14.01,2013-01-28 10:42:00,
2013-01-28 04:47:00,26.1,24.9,29.76,East,96,0.0,0.0,95,0.00,,SKC,0.00,VWS V14.01,2013-01-28 10:47:00,
2013-01-28 04:52:00,26.1,24.9,29.76,East,96,0.0,0.0,95,0.00,,SKC,0.00,VWS V14.01,2013-01-28 10:52:00,
2013-01-28 04:57:00,26.2,25.0,29.76,East,96,0.0,0.0,95,0.00,,SKC,0.00,VWS V14.01,2013-01-28 10:57:00,
2013-01-28 05:00:00,26.2,25.0,29.76,East,96,0.0,0.0,95,0.00,,SKC,0.00,VWS V14.01,2013-01-28 11:00:00,
2013-01-28 05:02:00,26.2,25.0,29.76,East,96,0.0,0.0,95,0.00,,SKC,0.00,VWS V14.01,2013-01-28 11:02:00,
2013-01-28 05:07:00,26.2,25.0,29.76,East,96,0.0,0.0,95,0.00,,SKC,0.00,VWS V14.01,2013-01-28 11:07:00,
2013-01-28 05:12:00,26.2,25.0,29.76,East,96,0.0,0.0,95,0.00,,SKC,0.00,VWS V14.01,2013-01-28 11:12:00,
2013-01-28 05:17:00,26.6,25.4,29.76,East,96,0.0,0.0,95,0.00,,SKC,0.00,VWS V14.01,2013-01-28 11:17:00,
2013-01-28 05:22:00,26.8,25.6,29.75,East,96,0.0,0.0,95,0.00,,SKC,0.00,VWS V14.01,2013-01-28 11:22:00,
2013-01-28 05:27:00,26.9,25.7,29.75,East,96,0.0,0.0,95,0.00,,SKC,0.00,VWS V14.01,2013-01-28 11:27:00,
2013-01-28 05:30:00,26.8,25.6,29.76,East,96,0.0,0.0,95,0.00,,SKC,0.00,VWS V14.01,2013-01-28 11:30:00,
2013-01-28 05:32:00,26.8,25.6,29.76,East,96,0.0,0.0,95,0.00,,SKC,0.00,VWS V14.01,2013-01-28 11:32:00,
2013-01-28 05:37:00,26.7,25.5,29.76,East,96,0.0,0.0,95,0.00,,SKC,0.00,VWS V14.01,2013-01-28 11:37:00,
2013-01-28 05:42:00,26.6,25.4,29.76,East,96,0.0,0.0,95,0.00,,SKC,0.00,VWS V14.01,2013-01-28 11:42:00,
2013-01-28 05:47:00,26.5,25.3,29.76,East,96,0.0,0.0,95,0.00,,SKC,0.00,VWS V14.01,2013-01-28 11:47:00,
2013-01-28 05:52:00,26.7,25.5,29.76,East,96,0.0,0.0,95,0.00,,SKC,0.00,VWS V14.01,2013-01-28 11:52:00,
2013-01-28 05:57:00,26.6,25.4,29.75,East,96,0.0,0.0,95,0.00,,SKC,0.00,VWS V14.01,2013-01-28 11:57:00,
2013-01-28 06:00:00,26.4,25.2,29.76,East,96,0.0,0.0,95,0.00,,SKC,0.00,VWS V14.01,2013-01-28 12:00:00,
2013-01-28 06:02:00,26.5,25.3,29.76,East,96,0.0,0.0,95,0.00,,SKC,0.00,VWS V14.01,2013-01-28 12:02:00,
2013-01-28 06:08:00,26.4,25.2,29.77,East,96,0.0,0.0,95,0.00,,SKC,0.00,VWS V14.01,2013-01-28 12:08:00,
2013-01-28 06:13:00,26.3,25.1,29.77,East,96,0.0,0.0,95,0.00,,SKC,0.00,VWS V14.01,2013-01-28 12:13:00,
2013-01-28 06:18:00,26.3,25.1,29.77,East,96,0.0,0.0,95,0.00,,SKC,0.00,VWS V14.01,2013-01-28 12:18:00,
2013-01-28 06:23:00,26.3,25.1,29.77,East,96,0.0,0.0,95,0.00,,SKC,0.00,VWS V14.01,2013-01-28 12:23:00,
2013-01-28 06:28:00,26.3,25.1,29.77,East,96,0.0,0.0,95,0.00,,SKC,0.00,VWS V14.01,2013-01-28 12:28:00,
2013-01-28 06:30:00,26.3,25.1,29.77,East,96,0.0,0.0,95,0.00,,SKC,0.00,VWS V14.01,2013-01-28 12:30:00,
2013-01-28 06:33:00,26.3,25.1,29.77,East,96,0.0,0.0,95,0.00,,SKC,0.00,VWS V14.01,2013-01-28 12:33:00,
2013-01-28 06:38:00,26.3,25.1,29.77,East,96,0.0,0.0,95,0.00,,SKC,0.00,VWS V14.01,2013-01-28 12:38:00,
2013-01-28 06:43:00,26.3,25.1,29.76,East,96,0.0,0.0,95,0.00,,SKC,0.00,VWS V14.01,2013-01-28 12:43:00,
2013-01-28 06:48:00,26.3,25.1,29.76,East,96,0.0,0.0,95,0.00,,SKC,0.00,VWS V14.01,2013-01-28 12:48:00,
2013-01-28 06:53:00,26.3,25.1,29.76,East,96,0.0,0.0,95,0.00,,SKC,0.00,VWS V14.01,2013-01-28 12:53:00,
2013-01-28 06:58:00,26.3,25.1,29.77,East,96,0.0,0.0,95,0.00,,SKC,0.00,VWS V14.01,2013-01-28 12:58:00,
2013-01-28 07:00:00,26.4,25.2,29.78,East,96,0.0,0.0,95,0.00,,SKC,0.00,VWS V14.01,2013-01-28 13:00:00,
2013-01-28 07:03:00,26.4,25.2,29.77,East,96,0.0,0.0,95,0.00,,SKC,0.00,VWS V14.01,2013-01-28 13:03:00,
2013-01-28 07:08:00,26.3,25.1,29.78,East,96,0.0,0.0,95,0.00,,SKC,0.00,VWS V14.01,2013-01-28 13:08:00,
2013-01-28 07:13:00,26.3,25.1,29.78,East,96,0.0,0.0,95,0.00,,SKC,0.00,VWS V14.01,2013-01-28 13:13:00,
2013-01-28 07:18:00,26.3,25.1,29.78,East,96,0.0,0.0,95,0.00,,SKC,0.00,VWS V14.01,2013-01-28 13:18:00,
2013-01-28 07:23:00,26.2,25.0,29.78,East,96,0.0,0.0,95,0.00,,SKC,0.00,VWS V14.01,2013-01-28 13:23:00,
2013-01-28 07:28:00,26.2,25.0,29.78,East,96,0.0,0.0,95,0.00,,SKC,0.00,VWS V14.01,2013-01-28 13:28:00,
2013-01-28 07:30:00,26.3,25.1,29.78,East,96,0.0,0.0,95,0.00,,SKC,0.00,VWS V14.01,2013-01-28 13:30:00,
2013-01-28 07:33:00,26.3,25.1,29.78,East,96,0.0,0.0,95,0.00,,SKC,0.00,VWS V14.01,2013-01-28 13:33:00,
2013-01-28 07:38:00,26.4,25.2,29.79,East,96,0.0,0.0,95,0.00,,SKC,0.00,VWS V14.01,2013-01-28 13:38:00,
2013-01-28 07:43:00,26.4,25.2,29.80,East,96,0.0,0.0,95,0.00,,SKC,0.00,VWS V14.01,2013-01-28 13:43:00,
2013-01-28 07:48:00,26.4,25.2,29.80,East,96,0.0,0.0,95,0.00,,SKC,0.00,VWS V14.01,2013-01-28 13:48:00,
2013-01-28 07:53:00,26.4,25.2,29.80,East,96,0.0,0.0,95,0.00,,SKC,0.00,VWS V14.01,2013-01-28 13:53:00,
2013-01-28 07:58:00,26.5,25.3,29.80,East,96,0.0,0.0,95,0.00,,SKC,0.00,VWS V14.01,2013-01-28 13:58:00,
2013-01-28 08:00:00,26.7,25.5,29.80,East,96,0.0,0.0,95,0.00,,SKC,0.00,VWS V14.01,2013-01-28 14:00:00,
2013-01-28 08:03:00,26.7,25.5,29.80,East,96,0.0,0.0,95,0.00,,SKC,0.00,VWS V14.01,2013-01-28 14:03:00,
2013-01-28 08:08:00,26.8,25.6,29.80,East,96,0.0,0.0,95,0.00,,SKC,0.00,VWS V14.01,2013-01-28 14:08:00,
2013-01-28 08:13:00,26.9,25.7,29.81,East,96,0.0,0.0,95,0.00,,SKC,0.00,VWS V14.01,2013-01-28 14:13:00,
2013-01-28 08:18:00,26.9,25.7,29.81,East,96,0.0,0.0,95,0.00,,SKC,0.00,VWS V14.01,2013-01-28 14:18:00,
2013-01-28 08:23:00,26.9,25.7,29.81,East,96,0.0,0.0,95,0.00,,SKC,0.00,VWS V14.01,2013-01-28 14:23:00,
2013-01-28 08:28:00,27.0,25.8,29.80,East,96,0.0,0.0,95,0.00,,SKC,0.00,VWS V14.01,2013-01-28 14:28:00,
2013-01-28 08:30:00,27.2,26.0,29.80,East,96,0.0,0.0,95,0.00,,SKC,0.00,VWS V14.01,2013-01-28 14:30:00,
2013-01-28 08:33:00,27.1,25.9,29.80,East,96,0.0,0.0,95,0.00,,SKC,0.00,VWS V14.01,2013-01-28 14:33:00,
2013-01-28 08:38:00,27.5,26.3,29.80,East,96,2.0,2.0,95,0.00,,SKC,0.00,VWS V14.01,2013-01-28 14:38:00,
2013-01-28 08:44:00,27.5,26.3,29.80,East,96,2.0,4.0,95,0.00,,SKC,0.00,VWS V14.01,2013-01-28 14:44:00,
2013-01-28 08:49:00,27.5,26.3,29.80,East,96,2.0,4.0,95,0.00,,SKC,0.00,VWS V14.01,2013-01-28 14:49:00,
2013-01-28 08:54:00,27.6,26.4,29.81,East,96,0.0,4.0,95,0.00,,SKC,0.00,VWS V14.01,2013-01-28 14:54:00,
2013-01-28 08:59:00,27.6,26.4,29.81,East,96,0.0,4.0,95,0.00,,SKC,0.00,VWS V14.01,2013-01-28 14:59:00,
2013-01-28 09:00:00,27.7,26.5,29.81,East,96,1.0,4.0,95,0.00,,SKC,0.00,VWS V14.01,2013-01-28 15:00:00,
2013-01-28 09:04:00,27.7,26.5,29.81,East,96,2.0,4.0,95,0.00,,SKC,0.00,VWS V14.01,2013-01-28 15:04:00,
2013-01-28 09:09:00,27.8,26.6,29.81,East,96,0.0,2.0,95,0.00,,SKC,0.00,VWS V14.01,2013-01-28 15:09:00,
2013-01-28 09:14:00,27.8,26.6,29.81,East,96,4.0,4.0,95,0.00,,SKC,0.00,VWS V14.01,2013-01-28 15:14:00,
2013-01-28 09:19:00,27.9,26.7,29.81,East,96,0.0,4.0,95,0.00,,SKC,0.00,VWS V14.01,2013-01-28 15:19:00,
2013-01-28 09:24:00,27.9,26.7,29.81,East,96,0.0,4.0,95,0.00,,SKC,0.00,VWS V14.01,2013-01-28 15:24:00,
2013-01-28 09:29:00,28.0,26.8,29.81,East,96,2.0,4.0,95,0.00,,SKC,0.00,VWS V14.01,2013-01-28 15:29:00,
2013-01-28 09:30:00,28.2,27.0,29.81,East,96,0.0,4.0,95,0.00,,SKC,0.00,VWS V14.01,2013-01-28 15:30:00,
2013-01-28 09:34:00,28.2,27.0,29.81,East,96,0.0,4.0,95,0.00,,SKC,0.00,VWS V14.01,2013-01-28 15:34:00,
2013-01-28 09:39:00,28.4,27.1,29.81,East,96,0.0,0.0,95,0.00,,SKC,0.00,VWS V14.01,2013-01-28 15:39:00,
2013-01-28 09:44:00,28.6,27.4,29.81,East,96,0.0,0.0,95,0.00,,SKC,0.00,VWS V14.01,2013-01-28 15:44:00,
2013-01-28 09:49:00,29.0,27.8,29.81,East,96,0.0,0.0,95,0.00,,SKC,0.00,VWS V14.01,2013-01-28 15:49:00,
2013-01-28 09:54:00,29.1,27.9,29.81,East,96,4.0,5.0,95,0.00,,SKC,0.00,VWS V14.01,2013-01-28 15:54:00,
2013-01-28 09:59:00,29.1,27.9,29.81,East,96,4.0,5.0,95,0.00,,SKC,0.00,VWS V14.01,2013-01-28 15:59:00,
2013-01-28 10:00:00,29.0,27.8,29.81,East,96,4.0,5.0,95,0.00,,SKC,0.00,VWS V14.01,2013-01-28 16:00:00,
2013-01-28 10:04:00,29.0,27.8,29.81,East,96,4.0,5.0,95,0.00,,SKC,0.00,VWS V14.01,2013-01-28 16:04:00,
2013-01-28 10:09:00,29.0,27.8,29.81,East,96,2.0,4.0,95,0.00,,SKC,0.00,VWS V14.01,2013-01-28 16:09:00,
2013-01-28 10:14:00,29.1,27.9,29.81,East,96,4.0,5.0,95,0.00,,SKC,0.00,VWS V14.01,2013-01-28 16:14:00,
2013-01-28 10:19:00,29.2,28.0,29.82,East,96,2.0,5.0,95,0.00,,SKC,0.00,VWS V14.01,2013-01-28 16:19:00,
2013-01-28 10:24:00,29.3,28.0,29.82,East,96,1.0,5.0,95,0.00,,SKC,0.00,VWS V14.01,2013-01-28 16:24:00,
2013-01-28 10:30:00,29.3,28.0,29.82,East,96,4.0,6.0,95,0.00,,SKC,0.00,VWS V14.01,2013-01-28 16:30:00,
2013-01-28 10:35:00,29.3,28.0,29.82,East,96,6.0,7.0,95,0.00,,SKC,0.00,VWS V14.01,2013-01-28 16:35:00,
2013-01-28 10:40:00,29.2,28.0,29.82,East,96,5.0,7.0,95,0.00,,SKC,0.00,VWS V14.01,2013-01-28 16:40:00,
2013-01-28 10:45:00,29.2,28.0,29.82,East,96,3.0,7.0,95,0.00,,SKC,0.00,VWS V14.01,2013-01-28 16:45:00,
2013-01-28 10:50:00,29.2,28.0,29.82,East,96,6.0,8.0,95,0.00,,SKC,0.00,VWS V14.01,2013-01-28 16:50:00,
2013-01-28 10:55:00,29.2,28.0,29.82,East,97,7.0,9.0,95,0.00,,SKC,0.00,VWS V14.01,2013-01-28 16:55:00,
2013-01-28 11:00:00,29.2,28.0,29.82,East,98,6.0,9.0,95,0.00,,SKC,0.00,VWS V14.01,2013-01-28 17:00:00,
2013-01-28 11:05:00,29.2,28.0,29.82,East,99,5.0,9.0,95,0.00,,SKC,0.00,VWS V14.01,2013-01-28 17:05:00,
2013-01-28 11:10:00,29.4,28.1,29.81,East,99,5.0,7.0,95,0.00,,SKC,0.00,VWS V14.01,2013-01-28 17:10:00,
2013-01-28 11:15:00,29.5,28.2,29.81,East,99,5.0,7.0,95,0.00,,SKC,0.00,VWS V14.01,2013-01-28 17:15:00,
2013-01-28 11:20:00,29.6,28.4,29.80,East,99,5.0,8.0,95,0.00,,SKC,0.00,VWS V14.01,2013-01-28 17:20:00,
2013-01-28 11:25:00,29.6,28.4,29.81,East,99,6.0,8.0,95,0.00,,SKC,0.00,VWS V14.01,2013-01-28 17:25:00,
2013-01-28 11:30:00,29.6,28.4,29.81,East,100,5.0,9.0,95,0.01,,SKC,0.01,VWS V14.01,2013-01-28 17:30:00,
2013-01-28 11:35:00,29.6,28.4,29.80,East,101,7.0,7.0,95,0.01,,SKC,0.01,VWS V14.01,2013-01-28 17:35:00,
2013-01-28 11:40:00,29.6,28.4,29.81,East,101,5.0,8.0,95,0.01,,SKC,0.01,VWS V14.01,2013-01-28 17:40:00,
2013-01-28 11:45:00,29.6,28.4,29.81,East,101,5.0,8.0,95,0.01,,SKC,0.01,VWS V14.01,2013-01-28 17:45:00,
2013-01-28 11:50:00,29.6,28.4,29.80,East,101,7.0,8.0,95,0.01,,SKC,0.01,VWS V14.01,2013-01-28 17:50:00,
2013-01-28 11:55:00,29.6,28.4,29.80,East,101,5.0,8.0,95,0.01,,SKC,0.01,VWS V14.01,2013-01-28 17:55:00,
2013-01-28 12:00:00,29.8,28.5,29.80,ESE,102,7.0,8.0,95,0.01,,SKC,0.01,VWS V14.01,2013-01-28 18:00:00,
2013-01-28 12:05:00,29.9,28.6,29.79,ESE,102,6.0,7.0,95,0.01,,SKC,0.01,VWS V14.01,2013-01-28 18:05:00,
2013-01-28 12:10:00,29.9,28.6,29.79,ESE,103,5.0,9.0,95,0.01,,SKC,0.01,VWS V14.01,2013-01-28 18:10:00,
2013-01-28 12:16:00,29.9,28.6,29.79,ESE,105,7.0,9.0,95,0.01,,SKC,0.01,VWS V14.01,2013-01-28 18:16:00,
2013-01-28 12:21:00,30.0,28.7,29.79,ESE,107,6.0,9.0,95,0.01,,SKC,0.01,VWS V14.01,2013-01-28 18:21:00,
2013-01-28 12:26:00,30.2,28.9,29.79,ESE,113,5.0,9.0,95,0.01,,SKC,0.01,VWS V14.01,2013-01-28 18:26:00,
2013-01-28 12:30:00,30.6,29.3,29.79,ESE,115,4.0,9.0,95,0.01,,SKC,0.01,VWS V14.01,2013-01-28 18:30:00,
2013-01-28 12:31:00,30.4,29.1,29.79,ESE,114,6.0,9.0,95,0.01,,SKC,0.01,VWS V14.01,2013-01-28 18:31:00,
2013-01-28 12:36:00,30.6,29.3,29.79,ESE,115,6.0,7.0,95,0.00,,SKC,0.01,VWS V14.01,2013-01-28 18:36:00,
2013-01-28 12:41:00,30.5,29.2,29.79,ESE,115,6.0,8.0,95,0.00,,SKC,0.01,VWS V14.01,2013-01-28 18:41:00,
2013-01-28 12:46:00,30.5,29.2,29.79,ESE,115,7.0,9.0,95,0.00,,SKC,0.01,VWS V14.01,2013-01-28 18:46:00,
2013-01-28 12:51:00,30.3,29.0,29.79,ESE,115,8.0,9.0,95,0.00,,SKC,0.01,VWS V14.01,2013-01-28 18:51:00,
2013-01-28 12:56:00,30.2,28.9,29.79,ESE,115,6.0,9.0,95,0.00,,SKC,0.01,VWS V14.01,2013-01-28 18:56:00,
2013-01-28 13:00:00,30.2,28.9,29.79,ESE,115,5.0,9.0,95,0.00,,SKC,0.01,VWS V14.01,2013-01-28 19:00:00,
2013-01-28 13:01:00,30.2,28.9,29.79,ESE,115,7.0,9.0,95,0.00,,SKC,0.01,VWS V14.01,2013-01-28 19:01:00,
2013-01-28 13:06:00,30.3,29.0,29.79,ESE,115,5.0,8.0,95,0.00,,SKC,0.01,VWS V14.01,2013-01-28 19:06:00,
2013-01-28 13:11:00,30.2,28.9,29.78,ESE,115,7.0,9.0,95,0.00,,SKC,0.01,VWS V14.01,2013-01-28 19:11:00,
2013-01-28 13:16:00,30.3,29.0,29.78,ESE,115,7.0,9.0,95,0.00,,SKC,0.01,VWS V14.01,2013-01-28 19:16:00,
2013-01-28 13:21:00,30.3,29.0,29.78,ESE,115,7.0,9.0,95,0.00,,SKC,0.01,VWS V14.01,2013-01-28 19:21:00,
2013-01-28 13:26:00,30.4,29.1,29.78,ESE,115,8.0,9.0,95,0.00,,SKC,0.01,VWS V14.01,2013-01-28 19:26:00,
2013-01-28 13:30:00,30.7,29.4,29.77,ESE,115,5.0,9.0,95,0.00,,SKC,0.01,VWS V14.01,2013-01-28 19:30:00,
2013-01-28 13:31:00,30.6,29.3,29.77,ESE,115,7.0,9.0,95,0.00,,SKC,0.01,VWS V14.01,2013-01-28 19:31:00,
2013-01-28 13:36:00,30.8,29.5,29.78,ESE,115,8.0,8.0,95,0.00,,SKC,0.01,VWS V14.01,2013-01-28 19:36:00,
2013-01-28 13:41:00,30.9,29.6,29.78,ESE,115,6.0,8.0,95,0.00,,SKC,0.01,VWS V14.01,2013-01-28 19:41:00,
2013-01-28 13:46:00,31.0,29.7,29.77,ESE,115,6.0,8.0,95,0.00,,SKC,0.01,VWS V14.01,2013-01-28 19:46:00,
2013-01-28 13:51:00,31.0,29.7,29.77,ESE,115,5.0,8.0,95,0.00,,SKC,0.01,VWS V14.01,2013-01-28 19:51:00,
2013-01-28 13:56:00,31.0,29.7,29.77,ESE,115,6.0,8.0,95,0.00,,SKC,0.01,VWS V14.01,2013-01-28 19:56:00,
2013-01-28 14:00:00,31.1,29.8,29.77,ESE,115,8.0,9.0,95,0.00,,SKC,0.01,VWS V14.01,2013-01-28 20:00:00,
2013-01-28 14:01:00,31.1,29.8,29.77,ESE,115,8.0,9.0,95,0.00,,SKC,0.01,VWS V14.01,2013-01-28 20:01:00,
2013-01-28 14:06:00,31.1,29.8,29.77,ESE,115,7.0,8.0,95,0.00,,SKC,0.01,VWS V14.01,2013-01-28 20:06:00,
2013-01-28 14:11:00,31.2,29.9,29.76,ESE,115,8.0,8.0,95,0.00,,SKC,0.01,VWS V14.01,2013-01-28 20:11:00,
2013-01-28 14:16:00,31.2,29.9,29.76,ESE,115,4.0,9.0,95,0.00,,SKC,0.01,VWS V14.01,2013-01-28 20:16:00,
2013-01-28 14:21:00,31.3,30.0,29.76,ESE,115,8.0,9.0,95,0.00,,SKC,0.01,VWS V14.01,2013-01-28 20:21:00,
2013-01-28 14:27:00,31.4,30.1,29.76,ESE,115,8.0,9.0,95,0.00,,SKC,0.01,VWS V14.01,2013-01-28 20:27:00,
2013-01-28 14:30:00,31.4,30.1,29.76,ESE,115,6.0,9.0,95,0.00,,SKC,0.01,VWS V14.01,2013-01-28 20:30:00,
2013-01-28 14:32:00,31.4,30.1,29.76,ESE,115,7.0,9.0,95,0.00,,SKC,0.01,VWS V14.01,2013-01-28 20:32:00,
2013-01-28 14:37:00,31.4,30.1,29.76,ESE,115,5.0,7.0,95,0.00,,SKC,0.01,VWS V14.01,2013-01-28 20:37:00,
2013-01-28 14:42:00,31.4,30.1,29.76,ESE,115,7.0,9.0,95,0.00,,SKC,0.01,VWS V14.01,2013-01-28 20:42:00,
2013-01-28 14:47:00,31.4,30.1,29.76,ESE,115,6.0,11.0,95,0.00,,SKC,0.01,VWS V14.01,2013-01-28 20:47:00,
2013-01-28 14:52:00,31.4,30.1,29.76,ESE,118,10.0,11.0,95,0.00,,SKC,0.01,VWS V14.01,2013-01-28 20:52:00,
2013-01-28 14:57:00,31.4,30.1,29.76,ESE,119,7.0,11.0,95,0.00,,SKC,0.01,VWS V14.01,2013-01-28 20:57:00,
2013-01-28 15:00:00,31.4,30.1,29.76,ESE,119,10.0,11.0,95,0.00,,SKC,0.01,VWS V14.01,2013-01-28 21:00:00,
2013-01-28 15:02:00,31.4,30.1,29.76,ESE,119,9.0,11.0,95,0.00,,SKC,0.01,VWS V14.01,2013-01-28 21:02:00,
2013-01-28 15:07:00,31.4,30.1,29.76,ESE,119,6.0,10.0,95,0.00,,SKC,0.01,VWS V14.01,2013-01-28 21:07:00,
2013-01-28 15:12:00,31.5,30.2,29.76,ESE,119,7.0,10.0,95,0.00,,SKC,0.01,VWS V14.01,2013-01-28 21:12:00,
2013-01-28 15:17:00,31.6,30.3,29.76,ESE,119,6.0,10.0,95,0.00,,SKC,0.01,VWS V14.01,2013-01-28 21:17:00,
2013-01-28 15:22:00,31.6,30.3,29.76,ESE,119,6.0,10.0,95,0.00,,SKC,0.01,VWS V14.01,2013-01-28 21:22:00,
2013-01-28 15:27:00,31.6,30.3,29.76,ESE,119,6.0,10.0,95,0.00,,SKC,0.01,VWS V14.01,2013-01-28 21:27:00,
2013-01-28 15:30:00,31.6,30.3,29.75,ESE,119,7.0,10.0,95,0.00,,SKC,0.01,VWS V14.01,2013-01-28 21:30:00,
2013-01-28 15:32:00,31.7,30.4,29.76,ESE,119,7.0,10.0,95,0.00,,SKC,0.01,VWS V14.01,2013-01-28 21:32:00,
2013-01-28 15:37:00,31.6,30.3,29.75,ESE,119,6.0,8.0,95,0.00,,SKC,0.01,VWS V14.01,2013-01-28 21:37:00,
2013-01-28 15:42:00,31.6,30.3,29.75,ESE,119,8.0,11.0,95,0.00,,SKC,0.01,VWS V14.01,2013-01-28 21:42:00,
2013-01-28 15:47:00,31.5,30.2,29.75,ESE,119,8.0,11.0,95,0.00,,SKC,0.01,VWS V14.01,2013-01-28 21:47:00,
2013-01-28 15:52:00,31.5,30.2,29.75,ESE,119,8.0,11.0,95,0.00,,SKC,0.01,VWS V14.01,2013-01-28 21:52:00,
2013-01-28 15:57:00,31.4,30.1,29.75,ESE,119,8.0,11.0,95,0.00,,SKC,0.01,VWS V14.01,2013-01-28 21:57:00,
2013-01-28 16:00:00,31.4,30.1,29.75,ESE,119,8.0,11.0,95,0.00,,SKC,0.01,VWS V14.01,2013-01-28 22:00:00,
2013-01-28 16:02:00,31.4,30.1,29.75,ESE,119,9.0,11.0,95,0.00,,SKC,0.01,VWS V14.01,2013-01-28 22:02:00,
2013-01-28 16:07:00,31.5,30.2,29.75,ESE,119,7.0,9.0,95,0.00,,SKC,0.01,VWS V14.01,2013-01-28 22:07:00,
2013-01-28 16:12:00,31.5,30.2,29.74,ESE,119,6.0,9.0,95,0.00,,SKC,0.01,VWS V14.01,2013-01-28 22:12:00,
2013-01-28 16:17:00,31.5,30.2,29.74,ESE,118,8.0,10.0,95,0.00,,SKC,0.01,VWS V14.01,2013-01-28 22:17:00,
2013-01-28 16:22:00,31.6,30.3,29.74,ESE,118,5.0,10.0,95,0.00,,SKC,0.01,VWS V14.01,2013-01-28 22:22:00,
2013-01-28 16:27:00,31.6,30.3,29.75,ESE,118,4.0,10.0,95,0.00,,SKC,0.01,VWS V14.01,2013-01-28 22:27:00,
2013-01-28 16:30:00,31.6,30.3,29.75,ESE,118,4.0,10.0,95,0.00,,SKC,0.01,VWS V14.01,2013-01-28 22:30:00,
2013-01-28 16:32:00,31.6,30.3,29.75,ESE,118,5.0,10.0,95,0.00,,SKC,0.01,VWS V14.01,2013-01-28 22:32:00,
2013-01-28 16:38:00,31.5,30.2,29.75,ESE,118,5.0,8.0,95,0.00,,SKC,0.01,VWS V14.01,2013-01-28 22:38:00,
2013-01-28 16:43:00,31.5,30.2,29.75,ESE,118,5.0,9.0,95,0.00,,SKC,0.01,VWS V14.01,2013-01-28 22:43:00,
2013-01-28 16:48:00,31.5,30.2,29.75,ESE,118,5.0,9.0,95,0.00,,SKC,0.01,VWS V14.01,2013-01-28 22:48:00,
2013-01-28 16:53:00,31.5,30.2,29.75,ESE,118,7.0,9.0,95,0.00,,SKC,0.01,VWS V14.01,2013-01-28 22:53:00,
2013-01-28 16:58:00,31.5,30.2,29.75,ESE,118,5.0,9.0,95,0.00,,SKC,0.01,VWS V14.01,2013-01-28 22:58:00,
2013-01-28 17:00:00,31.4,30.1,29.75,ESE,118,4.0,9.0,95,0.00,,SKC,0.01,VWS V14.01,2013-01-28 23:00:00,
2013-01-28 17:03:00,31.5,30.2,29.75,ESE,118,8.0,9.0,95,0.00,,SKC,0.01,VWS V14.01,2013-01-28 23:03:00,
2013-01-28 17:08:00,31.4,30.1,29.75,ESE,118,5.0,6.0,95,0.00,,SKC,0.01,VWS V14.01,2013-01-28 23:08:00,
2013-01-28 17:13:00,31.4,30.1,29.76,ESE,118,0.0,6.0,95,0.00,,SKC,0.01,VWS V14.01,2013-01-28 23:13:00,
2013-01-28 17:18:00,31.4,30.1,29.77,ESE,118,0.0,6.0,95,0.00,,SKC,0.01,VWS V14.01,2013-01-28 23:18:00,
2013-01-28 17:23:00,31.4,30.1,29.77,ESE,118,0.0,6.0,95,0.00,,SKC,0.01,VWS V14.01,2013-01-28 23:23:00,
2013-01-28 17:28:00,31.4,30.1,29.76,ESE,118,0.0,6.0,95,0.00,,SKC,0.01,VWS V14.01,2013-01-28 23:28:00,
2013-01-28 17:30:00,31.4,30.1,29.77,ESE,118,2.0,6.0,95,0.00,,SKC,0.01,VWS V14.01,2013-01-28 23:30:00,
2013-01-28 17:33:00,31.4,30.1,29.77,ESE,118,0.0,6.0,95,0.00,,SKC,0.01,VWS V14.01,2013-01-28 23:33:00,
2013-01-28 17:38:00,31.5,30.2,29.77,ESE,118,1.0,4.0,95,0.00,,SKC,0.01,VWS V14.01,2013-01-28 23:38:00,
2013-01-28 17:43:00,31.5,30.2,29.77,ESE,118,5.0,6.0,95,0.00,,SKC,0.01,VWS V14.01,2013-01-28 23:43:00,
2013-01-28 17:48:00,31.5,30.2,29.76,ESE,118,4.0,7.0,95,0.00,,SKC,0.01,VWS V14.01,2013-01-28 23:48:00,
2013-01-28 17:53:00,31.5,30.2,29.76,ESE,118,6.0,8.0,95,0.00,,SKC,0.01,VWS V14.01,2013-01-28 23:53:00,
2013-01-28 17:58:00,31.5,30.2,29.75,ESE,118,7.0,9.0,95,0.00,,SKC,0.01,VWS V14.01,2013-01-28 23:58:00,
2013-01-28 18:00:00,31.6,30.3,29.75,ESE,118,8.0,10.0,95,0.00,,SKC,0.01,VWS V14.01,2013-01-29 00:00:00,
2013-01-28 18:03:00,31.5,30.2,29.75,ESE,118,9.0,10.0,95,0.00,,SKC,0.01,VWS V14.01,2013-01-29 00:03:00,
2013-01-28 18:08:00,31.6,30.3,29.75,ESE,118,8.0,9.0,95,0.00,,SKC,0.01,VWS V14.01,2013-01-29 00:08:00,
2013-01-28 18:13:00,31.6,30.3,29.75,ESE,118,7.0,9.0,95,0.00,,SKC,0.01,VWS V14.01,2013-01-29 00:13:00,
2013-01-28 18:18:00,31.6,30.3,29.75,ESE,118,6.0,9.0,95,0.00,,SKC,0.01,VWS V14.01,2013-01-29 00:18:00,
2013-01-28 18:23:00,31.6,30.3,29.75,ESE,118,5.0,9.0,95,0.00,,SKC,0.01,VWS V14.01,2013-01-29 00:23:00,
2013-01-28 18:28:00,31.6,30.3,29.75,ESE,118,6.0,9.0,95,0.00,,SKC,0.01,VWS V14.01,2013-01-29 00:28:00,
2013-01-28 18:30:00,31.6,30.3,29.75,ESE,118,7.0,9.0,95,0.00,,SKC,0.01,VWS V14.01,2013-01-29 00:30:00,
2013-01-28 18:33:00,31.6,30.3,29.75,ESE,118,6.0,9.0,95,0.00,,SKC,0.01,VWS V14.01,2013-01-29 00:33:00,
2013-01-28 18:38:00,31.6,30.3,29.75,ESE,119,7.0,11.0,95,0.00,,SKC,0.01,VWS V14.01,2013-01-29 00:38:00,
2013-01-28 18:43:00,31.6,30.3,29.74,ESE,119,8.0,11.0,95,0.00,,SKC,0.01,VWS V14.01,2013-01-29 00:43:00,
2013-01-28 18:48:00,31.6,30.3,29.74,ESE,119,9.0,12.0,95,0.00,,SKC,0.01,VWS V14.01,2013-01-29 00:48:00,
2013-01-28 18:53:00,31.6,30.3,29.74,ESE,119,6.0,12.0,95,0.00,,SKC,0.01,VWS V14.01,2013-01-29 00:53:00,
2013-01-28 18:58:00,31.6,30.3,29.74,ESE,119,7.0,12.0,95,0.00,,SKC,0.01,VWS V14.01,2013-01-29 00:58:00,
2013-01-28 19:00:00,31.7,30.4,29.73,ESE,119,7.0,12.0,95,0.00,,SKC,0.01,VWS V14.01,2013-01-29 01:00:00,
2013-01-28 19:03:00,31.6,30.3,29.73,ESE,119,6.0,12.0,95,0.00,,SKC,0.01,VWS V14.01,2013-01-29 01:03:00,
2013-01-28 19:08:00,31.6,30.3,29.73,ESE,119,9.0,9.0,95,0.00,,SKC,0.01,VWS V14.01,2013-01-29 01:08:00,
2013-01-28 19:14:00,31.8,30.5,29.73,ESE,119,8.0,11.0,95,0.00,,SKC,0.01,VWS V14.01,2013-01-29 01:14:00,
2013-01-28 19:19:00,31.8,30.5,29.73,ESE,119,8.0,12.0,95,0.00,,SKC,0.01,VWS V14.01,2013-01-29 01:19:00,
2013-01-28 19:24:00,31.7,30.4,29.73,ESE,120,12.0,12.0,95,0.00,,SKC,0.01,VWS V14.01,2013-01-29 01:24:00,
2013-01-28 19:29:00,31.7,30.4,29.72,ESE,120,7.0,13.0,95,0.00,,SKC,0.01,VWS V14.01,2013-01-29 01:29:00,
2013-01-28 19:30:00,31.7,30.4,29.72,ESE,120,9.0,13.0,95,0.00,,SKC,0.01,VWS V14.01,2013-01-29 01:30:00,
2013-01-28 19:34:00,31.6,30.3,29.72,ESE,120,8.0,13.0,95,0.00,,SKC,0.01,VWS V14.01,2013-01-29 01:34:00,
2013-01-28 19:39:00,31.6,30.3,29.71,ESE,120,8.0,9.0,95,0.00,,SKC,0.01,VWS V14.01,2013-01-29 01:39:00,
2013-01-28 19:44:00,31.6,30.3,29.71,ESE,120,7.0,9.0,95,0.00,,SKC,0.01,VWS V14.01,2013-01-29 01:44:00,
2013-01-28 19:49:00,31.6,30.3,29.71,ESE,120,8.0,10.0,95,0.00,,SKC,0.01,VWS V14.01,2013-01-29 01:49:00,
2013-01-28 19:54:00,31.7,30.4,29.71,ESE,116,9.0,11.0,95,0.00,,SKC,0.01,VWS V14.01,2013-01-29 01:54:00,
2013-01-28 19:59:00,31.6,30.3,29.70,ESE,115,8.0,12.0,95,0.00,,SKC,0.01,VWS V14.01,2013-01-29 01:59:00,
2013-01-28 20:00:00,31.4,30.1,29.70,ESE,123,10.0,14.0,95,0.00,,SKC,0.01,VWS V14.01,2013-01-29 02:00:00,
2013-01-28 20:04:00,31.5,30.2,29.70,ESE,121,13.0,14.0,95,0.00,,SKC,0.01,VWS V14.01,2013-01-29 02:04:00,
2013-01-28 20:09:00,31.4,30.1,29.70,ESE,121,11.0,13.0,95,0.00,,SKC,0.01,VWS V14.01,2013-01-29 02:09:00,
2013-01-28 20:14:00,31.3,30.0,29.69,ESE,121,12.0,15.0,95,0.00,,SKC,0.01,VWS V14.01,2013-01-29 02:14:00,
2013-01-28 20:19:00,31.2,29.9,29.68,ESE,111,10.0,15.0,95,0.00,,SKC,0.01,VWS V14.01,2013-01-29 02:19:00,
2013-01-28 20:24:00,31.2,29.9,29.69,ESE,105,9.0,15.0,95,0.00,,SKC,0.01,VWS V14.01,2013-01-29 02:24:00,
2013-01-28 20:29:00,31.1,29.8,29.69,ESE,119,11.0,15.0,95,0.00,,SKC,0.01,VWS V14.01,2013-01-29 02:29:00,
2013-01-28 20:30:00,31.1,29.8,29.69,ESE,119,13.0,15.0,95,0.00,,SKC,0.01,VWS V14.01,2013-01-29 02:30:00,
2013-01-28 20:34:00,31.2,29.9,29.69,ESE,118,7.0,15.0,95,0.00,,SKC,0.01,VWS V14.01,2013-01-29 02:34:00,
2013-01-28 20:39:00,31.0,29.7,29.70,SE,140,9.0,13.0,95,0.00,,SKC,0.01,VWS V14.01,2013-01-29 02:39:00,
2013-01-28 20:44:00,30.9,29.6,29.70,SE,129,12.0,18.0,95,0.00,,SKC,0.01,VWS V14.01,2013-01-29 02:44:00,
2013-01-28 20:49:00,30.7,29.4,29.70,SE,130,11.0,18.0,95,0.00,,SKC,0.01,VWS V14.01,2013-01-29 02:49:00,
2013-01-28 20:54:00,30.7,29.4,29.70,ESE,123,12.0,18.0,95,0.00,,SKC,0.01,VWS V14.01,2013-01-29 02:54:00,
2013-01-28 20:59:00,30.6,29.3,29.70,SE,127,10.0,18.0,95,0.00,,SKC,0.01,VWS V14.01,2013-01-29 02:59:00,
2013-01-28 21:00:00,30.5,29.2,29.71,SE,144,9.0,18.0,95,0.00,,SKC,0.01,VWS V14.01,2013-01-29 03:00:00,
2013-01-28 21:04:00,30.6,29.3,29.71,SE,146,7.0,18.0,95,0.00,,SKC,0.01,VWS V14.01,2013-01-29 03:04:00,
2013-01-28 21:09:00,30.5,29.2,29.70,SE,126,12.0,18.0,95,0.00,,SKC,0.01,VWS V14.01,2013-01-29 03:09:00,
2013-01-28 21:14:00,30.4,29.1,29.69,SE,131,12.0,18.0,95,0.00,,SKC,0.01,VWS V14.01,2013-01-29 03:14:00,
2013-01-28 21:19:00,30.4,29.1,29.69,SE,130,6.0,18.0,95,0.00,,SKC,0.01,VWS V14.01,2013-01-29 03:19:00,
2013-01-28 21:24:00,30.3,29.0,29.68,ESE,123,10.0,18.0,95,0.00,,SKC,0.01,VWS V14.01,2013-01-29 03:24:00,
2013-01-28 21:29:00,30.3,29.0,29.67,ESE,105,9.0,18.0,95,0.00,,SKC,0.01,VWS V14.01,2013-01-29 03:29:00,
2013-01-28 21:30:00,30.2,28.9,29.67,ESE,106,7.0,18.0,95,0.00,,SKC,0.01,VWS V14.01,2013-01-29 03:30:00,
2013-01-28 21:35:00,30.2,28.9,29.67,ESE,106,6.0,18.0,95,0.00,,SKC,0.01,VWS V14.01,2013-01-29 03:35:00,
2013-01-28 21:40:00,30.2,28.9,29.67,ESE,107,7.0,10.0,95,0.00,,SKC,0.01,VWS V14.01,2013-01-29 03:40:00,
2013-01-28 21:45:00,30.2,28.9,29.67,ESE,107,6.0,10.0,95,0.00,,SKC,0.01,VWS V14.01,2013-01-29 03:45:00,
2013-01-28 21:50:00,30.2,28.9,29.67,ESE,107,8.0,10.0,95,0.00,,SKC,0.01,VWS V14.01,2013-01-29 03:50:00,
2013-01-28 21:55:00,30.2,28.9,29.65,ESE,107,8.0,10.0,95,0.00,,SKC,0.01,VWS V14.01,2013-01-29 03:55:00,
2013-01-28 22:00:00,30.2,28.9,29.64,ESE,106,7.0,10.0,95,0.00,,SKC,0.01,VWS V14.01,2013-01-29 04:00:00,
2013-01-28 22:05:00,30.1,28.8,29.64,East,96,7.0,10.0,95,0.00,,SKC,0.01,VWS V14.01,2013-01-29 04:05:00,
2013-01-28 22:10:00,30.1,28.8,29.62,ENE,76,7.0,11.0,95,0.00,,SKC,0.01,VWS V14.01,2013-01-29 04:10:00,
2013-01-28 22:15:00,30.1,28.8,29.63,East,81,9.0,11.0,95,0.00,,SKC,0.01,VWS V14.01,2013-01-29 04:15:00,
2013-01-28 22:20:00,30.1,28.8,29.63,East,90,9.0,11.0,95,0.00,,SKC,0.01,VWS V14.01,2013-01-29 04:20:00,
2013-01-28 22:25:00,30.1,28.8,29.62,East,92,8.0,11.0,95,0.00,,SKC,0.01,VWS V14.01,2013-01-29 04:25:00,
2013-01-28 22:30:00,30.1,28.8,29.62,East,92,5.0,11.0,95,0.00,,SKC,0.01,VWS V14.01,2013-01-29 04:30:00,
2013-01-28 22:35:00,30.1,28.8,29.62,East,92,8.0,11.0,95,0.00,,SKC,0.01,VWS V14.01,2013-01-29 04:35:00,
2013-01-28 22:40:00,30.1,28.8,29.61,East,92,7.0,9.0,95,0.00,,SKC,0.01,VWS V14.01,2013-01-29 04:40:00,
2013-01-28 22:45:00,30.1,29.1,29.60,East,92,8.0,9.0,96,0.00,,SKC,0.01,VWS V14.01,2013-01-29 04:45:00,
2013-01-28 22:50:00,30.1,29.1,29.60,East,92,7.0,10.0,96,0.00,,SKC,0.01,VWS V14.01,2013-01-29 04:50:00,
2013-01-28 22:55:00,30.1,29.1,29.60,East,92,7.0,10.0,96,0.00,,SKC,0.01,VWS V14.01,2013-01-29 04:55:00,
2013-01-28 23:00:00,30.2,29.2,29.58,East,92,6.0,10.0,96,0.00,,SKC,0.01,VWS V14.01,2013-01-29 05:00:00,
2013-01-28 23:03:00,30.2,29.2,29.59,East,92,9.0,10.0,96,0.00,,SKC,0.01,VWS V14.01,2013-01-29 05:03:00,
2013-01-28 23:04:00,30.2,29.2,29.59,East,91,7.0,10.0,96,0.00,,SKC,0.01,VWS V14.01,2013-01-29 05:04:00,
2013-01-28 23:05:00,30.2,29.2,29.58,East,92,6.0,10.0,96,0.00,,SKC,0.01,VWS V14.01,2013-01-29 05:05:00,
2013-01-28 23:06:00,30.2,29.2,29.58,East,91,7.0,9.0,96,0.00,,SKC,0.01,VWS V14.01,2013-01-29 05:06:00,
2013-01-28 23:11:00,30.3,29.3,29.58,East,91,7.0,9.0,96,0.00,,SKC,0.01,VWS V14.01,2013-01-29 05:11:00,
2013-01-28 23:16:00,30.3,29.3,29.59,East,91,7.0,9.0,96,0.00,,SKC,0.01,VWS V14.01,2013-01-29 05:16:00,
2013-01-28 23:21:00,30.4,29.1,29.59,East,91,4.0,9.0,95,0.00,,SKC,0.01,VWS V14.01,2013-01-29 05:21:00,
2013-01-28 23:26:00,30.4,29.1,29.58,East,91,6.0,9.0,95,0.00,,SKC,0.01,VWS V14.01,2013-01-29 05:26:00,
2013-01-28 23:30:00,30.5,29.2,29.57,East,91,7.0,9.0,95,0.00,,SKC,0.01,VWS V14.01,2013-01-29 05:30:00,
2013-01-28 23:31:00,30.5,29.2,29.58,East,91,5.0,9.0,95,0.00,,SKC,0.01,VWS V14.01,2013-01-29 05:31:00,
2013-01-28 23:36:00,30.5,29.2,29.57,East,91,6.0,8.0,95,0.00,,SKC,0.01,VWS V14.01,2013-01-29 05:36:00,
2013-01-28 23:41:00,30.5,29.2,29.57,East,91,6.0,8.0,95,0.00,,SKC,0.01,VWS V14.01,2013-01-29 05:41:00,
2013-01-28 23:46:00,30.7,29.4,29.56,East,91,6.0,8.0,95,0.00,,SKC,0.01,VWS V14.01,2013-01-29 05:46:00,
2013-01-28 23:51:00,30.7,29.7,29.56,East,91,6.0,8.0,96,0.00,,SKC,0.01,VWS V14.01,2013-01-29 05:51:00,
2013-01-28 23:56:00,30.7,29.7,29.56,East,91,4.0,8.0,96,0.00,,SKC,0.01,VWS V14.01,2013-01-29 05:56:00,